User: anonymous   Login
Location: Caltech
(34.1382°N, 118.1253°W)
Time: 14:10:59
(UTC-07:00)
Language:

Cosmos 1975 - Orbit

View from above orbital plane
View from above orbital plane
View from above satellite
View from above satellite

Ground track
Ground track

The orbit data is extracted from the following two-line orbital elements,

1 19573U 88093A   14297.45784879  .00004721  00000-0  36689-3 0  3508
2 19573 082.5243 199.3029 0015355 353.5811 006.5214 15.01012341414587
Epoch (UTC): 24 October 2014 10:59:18
Eccentricity: 0.0015355
inclination: 82.5243°
perigee height: 553 km
apogee height: 574 km
right ascension of ascending node: 199.3029°
argument of perigee: 353.5811°
revolutions per day: 15.01012341
mean anomaly at epoch: 6.5214°
orbit number at epoch: 41458

The dashed part of the orbit path shows where the satellite is in the earth's shadow,  

DLR